OPS 4682 DEB, 38412

Orbit data source: Space-Track

OPS 4682 DEB, 38412 is space debris in LEO originally from a launch on Sat, 03 Apr 1965 UTC launched from the Air Force Western Test Range (AFWTR). Debris objects in space refer to the collection of defunct objects orbiting the Earth. Examples of debris include non-operational satellites, rocket bodies, and fragments generated from explosions, collisions, or faulty payload assembly.

Loading next visibility...
Identifier
38412, 1965-027DR
Orbit
LEO
Country
Flag of USUS
Related business
Manufacturer
Unknown
Mission
Spacecraft
Bus & Motor
Unknown
Mass
Unknown
Launch date (UTC)
1965-04-03 (61 years ago)
Launch vehicle
Unknown
Launch site
Air Force Western Test Range (AFWTR)
Object type
Payload
Rocket body
Debris
Shape & HBR
Unknown shape, 0.1 m
Radar Cross Section
Medium (>0.1 m² and <1 m²)

Expand to show TLE details & history
Last TLE update: 1 week ago

TLE from 1 week ago
0 OPS 4682 DEB
1 38412U 65027DR  26153.38370077 -.00000004  00000-0 -41287-4 0  9992
2 38412  90.2352   2.8520 0029906 297.1974  62.6098 12.94837091628745
Epoch: 2026-06-02T09:12Z
TLE epoch observation values (Epoch: 2026-06-02T09:12:31.746Z)
Latitude
-0.00002°
Longitude
-26.13773°
Altitude
1,274.771 km
Speed
7.223 km/s
True Right ascension
00h 11m 24s
True Declination
0° 00' 00"
Sunlit
Object was in daylight at epoch
Visualization orbit readout
Latitude
Unknown
Longitude
Unknown
Altitude
Unknown
Speed
Unknown
Apparent Right ascension
Unknown
Apparent Declination
Unknown
Sunlit
N/A
Visualization observer readout
Local Sidereal Time
19:13:42
Azimuth
Unknown
Elevation
Unknown
Doppler factor
Unknown
Orbital elements
Apogee altitude
1,302.418 km
Perigee altitude
1,256.616 km
Semi-major axis
7,657.654 km
Eccentricity
0.00299
Inclination
90.2352°
RAAN
2.852°
Arg. of periapsis
297.1974°
True anomaly
62.9146°
Mean anomaly
62.6098°
Eccentric anomaly
62.76215°
Mean motion
3.23892 °/min
Orbital period
111.15 mins
BSTAR
-0.000041287
Loading maneuver chart data...
Computing Atmospheric mass density...
Loading historical data...
Loading historical data...
Loading historical data...
Loading historical data...
Loading historical data...
Loading historical data...
Loading historical data...

Documentation

Showing up to 5 results
|